#timestamp,LO_Frequency,Hit,StdDev 
1510178415.3,286047004.0,N
1510178435.1,286047001.5,N
1510178455.9,286047001.9,N
1510178475.7,286047002.1,N
1510178495.5,286047002.5,N
1510178515.4,286047002.8,N
1510178535.2,286047001.0,N
1510178555.0,286047000.4,N
1510178555.9,286047000.4,N
1510178575.8,286047000.1,N
1510178595.6,286047002.6,N
1510178615.5,286047002.5,N
1510178635.3,286047001.6,N
1510178655.1,286047001.4,N
1510178675.9,286047001.9,N
1510178695.7,286047000.2,N
1510178715.5,286047002.5,N
1510178735.4,286047001.6,N
1510178755.2,286047002.0,N
1510178775.1,286047002.1,N
1510178776.0,286047002.1,N
1510178795.8,286046999.8,N
1510178815.6,286047001.8,N
1510178835.5,286047002.5,N
1510178855.3,286047001.4,N
1510178875.1,286047001.3,N
1510178895.9,286047003.9,Y
1510178915.7,286047001.8,P
1510178935.6,286047001.9,P
1510178955.4,286047000.7,P
1510178975.2,286046998.5,N
1510178995.1,286046998.1,N
1510178996.0,286046998.1,N
1510179015.8,286047001.2,N
1510179035.6,286046998.2,N
1510179055.5,286046998.5,N
1510179075.3,286046998.9,N
1510179095.2,286046998.4,N
1510179115.9,286047000.3,N
1510179135.7,286046998.3,N
1510179155.6,286047000.4,N
1510179175.4,286047001.2,N
1510179195.2,286047000.4,N
1510179215.1,286047002.8,N
1510179216.0,286047002.8,N
1510179235.8,286047001.6,N
1510179255.7,286047002.7,N
1510179275.5,286047001.8,N
1510179295.3,286047002.5,N
1510179315.2,286047001.6,N
1510179335.9,286047002.6,N
1510179355.7,286047002.2,N
1510179375.6,286047002.8,N
1510179395.4,286047000.4,N
1510179415.2,286046999.9,N
1510179435.1,286046999.9,N
1510179436.0,286046999.9,N
1510179455.8,286047002.4,N
1510179475.7,286047002.8,N
1510179495.5,286047002.1,N
1510179515.3,286047001.8,N
1510179535.2,286047001.8,N
1510179555.0,286047002.5,N
1510179555.9,286047002.5,N
1510179575.7,286047001.4,N
1510179595.6,286047001.6,N
1510179615.4,286047001.6,N
1510179635.3,286047000.5,N
1510179655.1,286047000.1,N
1510179656.0,286047000.1,N
1510179675.8,286047000.1,N
1510179695.7,286047000.0,N
1510179715.5,286047001.5,N
1510179735.4,286047004.2,Y
1510179755.2,286047002.5,P
1510179775.0,286047002.8,P
1510179775.9,286047002.8,P
1510179795.8,286047002.1,Y
1510179815.6,286046998.5,P
1510179835.4,286047000.8,N
1510179855.3,286046999.7,N
1510179875.1,286047000.2,N
1510179895.9,286047000.9,N
1510179915.7,286047000.6,N
1510179935.5,286047000.8,N
1510179955.4,286047000.8,N
1510179975.2,286047000.9,N
1510179995.1,286047000.3,N
1510179996.0,286047000.3,N
1510180015.8,286047002.3,N
1510180035.6,286047002.3,N
1510180055.5,286047001.3,N
1510180075.3,286047002.8,N
1510180095.1,286047000.5,N
1510180115.9,286047000.6,N
1510180135.7,286046998.3,N
1510180155.6,286046997.7,N
1510180175.4,286046997.4,N
1510180195.2,286046997.7,N
1510180215.1,286046995.3,Y
1510180216.0,286046995.3,P
1510180235.8,286046995.6,N
1510180255.7,286046996.1,N
1510180275.5,286046995.8,N
1510180325.4,286046994.2,E
1510180335.3,286046997.6,N
1510180355.1,286047000.4,P
1510180375.9,286047000.9,N
1510180395.7,286047002.4,N
1510180415.5,286047002.4,N
1510180435.4,286046999.8,N
1510180455.2,286047002.2,N
1510180475.0,286047001.7,N
1510180475.9,286047001.7,N
1510180495.8,286047003.9,N
1510180515.6,286047003.7,N
1510180535.5,286047003.4,N
1510180555.3,286047005.6,Y
1510180575.1,286047004.2,P
1510180595.9,286047003.2,N
1510180615.7,286047004.2,P
1510180635.5,286047002.5,N
1510180655.4,286047002.3,N
1510180675.2,286047002.7,N
1510180695.1,286047002.6,N
1510180696.0,286047002.6,Y
1510180715.8,286047001.2,P
1510180735.6,286046998.8,N
1510180755.5,286046996.9,N
1510180775.3,286046997.2,N
1510180795.1,286046995.4,N
1510180815.9,286046997.0,N
1510180835.7,286046999.2,N
1510180855.6,286046997.3,N
1510180875.4,286046997.4,N
1510180895.2,286046997.2,N
1510180915.1,286046997.1,N
1510180916.0,286046997.1,N
1510180935.8,286046998.9,N
1510180955.6,286046996.6,N
1510180975.5,286046998.5,N
1510180995.3,286046998.9,N
1510181015.2,286047000.7,N
1510181035.9,286046996.9,N
1510181055.7,286046997.3,N
1510181075.6,286046996.7,N
1510181095.4,286046994.9,N
1510181115.2,286046995.0,N
1510181135.1,286046999.4,N
1510181136.0,286046999.4,N
1510181155.8,286046998.2,N
1510181175.7,286046998.3,N
1510181195.5,286046998.3,N
1510181215.3,286046998.1,N
1510181235.2,286046998.6,N
1510181255.0,286046998.4,N
1510181255.9,286046998.4,N
1510181275.8,286046998.7,N
1510181295.6,286046998.5,N
1510181315.4,286046999.0,N
1510181335.3,286046997.0,N
1510181355.1,286046996.7,N
1510181375.8,286046999.6,N
1510181395.7,286046998.3,N
1510181415.5,286046999.5,N
1510181435.4,286046998.8,N
1510181455.2,286046998.9,N
1510181475.0,286046997.7,N
1510181475.9,286046997.7,N
1510181495.8,286046999.4,N
1510181515.6,286046998.9,N
1510181535.4,286047000.4,N
1510181555.3,286047000.4,N
1510181575.1,286046998.8,N
1510181595.9,286046998.2,N
1510181615.7,286046999.0,N
1510181635.5,286046998.6,N
1510181655.4,286047001.2,N
1510181675.2,286047000.7,N
1510181695.0,286047000.7,N
1510181695.9,286047000.7,N
1510181715.8,286047000.3,N
1510181735.6,286047000.1,N
1510181755.5,286046999.9,N
1510181775.3,286046999.8,N
1510181795.1,286047000.3,N
1510181815.9,286046999.8,N
1510181835.7,286047000.7,N
1510181855.5,286047000.5,N
1510181875.4,286047000.6,N
1510181895.2,286047001.2,N
1510181915.1,286046998.7,N
1510181916.0,286046998.7,N
1510181935.8,286046999.5,N
1510181955.6,286046998.9,N
1510181975.5,286046999.6,N
1510181995.3,286046998.7,N
